TimeEDT,TemperatureF,Dew PointF,Humidity,Sea Level PressureIn,VisibilityMPH,Wind Direction,Wind SpeedMPH,Gust SpeedMPH,PrecipitationIn,Events,Conditions,WindDirDegrees,DateUTC
12:56 AM,63.0,55.9,78,29.85,10.0,NNW,4.6,-,N/A,,Overcast,340,2012-09-10 04:56:00
1:56 AM,62.1,57.0,84,29.85,10.0,North,5.8,-,N/A,,Overcast,360,2012-09-10 05:56:00
2:56 AM,61.0,55.0,81,29.83,10.0,NNW,6.9,-,N/A,,Overcast,330,2012-09-10 06:56:00
3:56 AM,60.1,54.0,80,29.84,10.0,North,6.9,-,N/A,,Clear,350,2012-09-10 07:56:00
4:56 AM,59.0,53.1,81,29.85,10.0,North,10.4,-,N/A,,Clear,350,2012-09-10 08:56:00
5:56 AM,57.9,53.1,84,29.87,10.0,North,11.5,-,N/A,,Clear,350,2012-09-10 09:56:00
6:56 AM,57.9,52.0,81,29.90,10.0,North,9.2,-,N/A,,Clear,360,2012-09-10 10:56:00
7:56 AM,61.0,51.1,70,29.92,10.0,North,10.4,19.6,N/A,,Clear,350,2012-09-10 11:56:00
8:56 AM,64.0,50.0,60,29.94,10.0,North,15.0,21.9,N/A,,Scattered Clouds,350,2012-09-10 12:56:00
9:56 AM,66.9,51.1,57,29.95,10.0,North,10.4,18.4,N/A,,Scattered Clouds,350,2012-09-10 13:56:00
10:56 AM,66.9,48.9,52,29.94,10.0,NNW,13.8,21.9,N/A,,Clear,340,2012-09-10 14:56:00
11:56 AM,70.0,46.9,44,29.94,10.0,NNW,13.8,-,N/A,,Scattered Clouds,340,2012-09-10 15:56:00
12:56 PM,71.1,46.0,41,29.93,10.0,North,18.4,23.0,N/A,,Scattered Clouds,10,2012-09-10 16:56:00
1:56 PM,70.0,48.0,46,29.93,10.0,NNW,15.0,-,N/A,,Mostly Cloudy,340,2012-09-10 17:56:00
2:56 PM,69.1,46.9,45,29.92,10.0,NNW,17.3,21.9,N/A,,Mostly Cloudy,340,2012-09-10 18:56:00
3:56 PM,70.0,46.0,42,29.92,10.0,NNW,12.7,21.9,N/A,,Mostly Cloudy,340,2012-09-10 19:56:00
4:56 PM,68.0,46.0,45,29.94,10.0,NNW,11.5,21.9,N/A,,Mostly Cloudy,330,2012-09-10 20:56:00
5:56 PM,66.0,46.0,48,29.96,10.0,NW,11.5,19.6,N/A,,Scattered Clouds,320,2012-09-10 21:56:00
6:56 PM,64.4,44.6,49,29.98,10.0,NW,9.2,-,N/A,,Clear,320,2012-09-10 22:56:00
7:56 PM,61.0,44.1,54,30.01,10.0,NNW,9.2,-,N/A,,Clear,330,2012-09-10 23:56:00
8:56 PM,57.9,45.0,62,30.04,10.0,NNW,9.2,-,N/A,,Clear,330,2012-09-11 00:56:00
9:56 PM,57.9,44.1,60,30.06,10.0,NNW,8.1,-,N/A,,Clear,330,2012-09-11 01:56:00
10:56 PM,57.0,44.1,62,30.07,10.0,NNW,6.9,-,N/A,,Clear,340,2012-09-11 02:56:00
11:56 PM,55.4,44.6,67,30.09,10.0,NW,8.1,-,N/A,,Clear,320,2012-09-11 03:56:00